Waarnemingen

Advertentie
Mijn weer
Faßberg, Duitsland (10246): temperatuur & dauwpunt: 22.05.2018 11:00:00 - 28.05.2018 11:00:00 (CEST)Faßberg, Duitsland (10246): windsnelheid & windstoten: 22.05.2018 11:00:00 - 28.05.2018 11:00:00 (CEST)Faßberg, Duitsland (10246): windrichting: 22.05.2018 11:00:00 - 28.05.2018 11:00:00 (CEST)Faßberg, Duitsland (10246): luchtdruk: 22.05.2018 11:00:00 - 28.05.2018 11:00:00 (CEST)Faßberg, Duitsland (10246): zicht: 22.05.2018 11:00:00 - 28.05.2018 11:00:00 (CEST)
Datum & Tijd tt [°C] td [°C] ff [km/u] ff [kn] fx [km/u] fx [kn] dd ppp [hPa] vv [km]
28.05.2018 11:00:00 22,1 14,4 11 6 - - O 1019,8 20
28.05.2018 10:00:00 19,8 13,9 14 8 - - O 1020,4 20
28.05.2018 09:00:00 19,0 13,7 18 10 - - O 1020,6 20
28.05.2018 08:00:00 17,4 13,4 14 8 - - O 1020,4 20
28.05.2018 07:00:00 16,2 12,9 11 6 - - O 1020,0 25
28.05.2018 06:00:00 15,8 12,6 11 6 - - O 1019,6 5
28.05.2018 05:00:00 16,2 12,4 11 6 - - O 1019,5 5
28.05.2018 04:00:00 16,3 12,0 7 4 - - O 1019,4 5
28.05.2018 03:00:00 17,5 12,0 7 4 - - OZO 1019,5 5
28.05.2018 02:00:00 18,0 11,8 11 6 - - O 1019,8 5
28.05.2018 01:00:00 18,6 11,7 11 6 - - O 1019,9 5
28.05.2018 00:00:00 19,9 11,3 14 8 - - OZO 1019,5 5
27.05.2018 23:00:00 21,1 11,9 22 12 - - OZO 1019,5 5
27.05.2018 22:00:00 21,2 14,3 14 8 - - ONO 1019,0 5
27.05.2018 21:00:00 23,2 13,0 14 8 - - ONO 1018,6 5
27.05.2018 20:00:00 25,1 9,4 14 8 - - O 1018,5 6
27.05.2018 19:00:00 26,1 9,3 11 6 - - OZO 1018,4 7
27.05.2018 18:00:00 25,9 9,4 11 6 - - OZO 1018,5 8
27.05.2018 17:00:00 25,8 8,8 14 8 - - OZO 1019,0 7
27.05.2018 16:00:00 26,3 9,2 18 10 - - OZO 1019,2 7
27.05.2018 15:00:00 25,6 8,8 14 8 - - OZO 1019,8 7
27.05.2018 14:00:00 24,7 8,1 11 6 - - OZO 1020,7 7
27.05.2018 13:00:00 23,4 9,4 14 8 - - OZO 1021,4 5
27.05.2018 12:00:00 22,5 10,9 18 10 - - O 1021,9 5
27.05.2018 11:00:00 20,6 11,5 18 10 - - ONO 1022,3 5
27.05.2018 10:00:00 18,8 11,6 18 10 - - O 1022,5 5
27.05.2018 09:00:00 17,4 11,4 18 10 - - O 1022,7 5
27.05.2018 08:00:00 15,5 11,8 11 6 - - O 1022,2 5
27.05.2018 07:00:00 13,3 11,6 11 6 - - ONO 1022,1 5
27.05.2018 06:00:00 12,3 10,5 4 2 - - ONO 1022,2 5
27.05.2018 05:00:00 11,8 10,1 11 6 - - O 1022,5 5
27.05.2018 04:00:00 12,0 10,0 11 6 - - ONO 1022,8 6
27.05.2018 03:00:00 12,7 9,9 7 4 - - ONO 1022,8 6
27.05.2018 02:00:00 12,9 8,9 4 2 - - N 1023,1 6
27.05.2018 01:00:00 14,5 9,3 7 4 - - ONO 1023,2 6
27.05.2018 00:00:00 15,0 9,1 11 6 - - ONO 1023,2 6
26.05.2018 23:00:00 16,8 9,2 11 6 - - ONO 1022,9 6
26.05.2018 22:00:00 19,1 9,3 14 8 - - ONO 1022,8 6
26.05.2018 21:00:00 21,3 8,2 14 8 - - ONO 1022,2 6
26.05.2018 20:00:00 23,3 7,8 25 14 - - ONO 1022,0 7
26.05.2018 19:00:00 25,0 9,1 25 14 - - ONO 1021,7 7
26.05.2018 18:00:00 26,8 7,0 18 10 - - ONO 1021,5 6
26.05.2018 17:00:00 27,0 3,2 14 8 - - ONO 1021,6 6
26.05.2018 16:00:00 27,0 4,4 11 6 - - NO 1021,7 7
26.05.2018 15:00:00 26,3 5,9 11 6 - - NNO 1022,1 7
26.05.2018 14:00:00 25,7 5,5 11 6 - - NO 1022,5 6
26.05.2018 13:00:00 25,5 7,4 11 6 - - OZO 1022,5 5
26.05.2018 12:00:00 23,9 9,4 14 8 - - O 1022,7 5
26.05.2018 11:00:00 22,7 10,0 14 8 - - O 1022,9 5
26.05.2018 10:00:00 19,6 9,9 14 8 - - O 1023,0 5
26.05.2018 09:00:00 16,8 9,1 18 10 - - O 1023,1 5
26.05.2018 08:00:00 15,0 8,7 14 8 - - O 1022,9 5
26.05.2018 07:00:00 - - - - - - - - -
26.05.2018 06:00:00 10,5 6,3 7 4 - - O 1022,5 40
26.05.2018 05:00:00 10,8 6,3 7 4 - - O 1022,4 40
26.05.2018 04:00:00 11,9 6,4 7 4 - - O 1022,3 40
26.05.2018 03:00:00 12,9 6,4 7 4 - - O 1022,2 40
26.05.2018 02:00:00 13,4 6,0 11 6 - - O 1022,3 40
26.05.2018 01:00:00 14,7 5,8 11 6 - - O 1022,4 40
26.05.2018 00:00:00 15,4 5,7 14 8 - - O 1022,2 40
25.05.2018 23:00:00 17,0 5,4 14 8 - - O 1021,9 40
25.05.2018 22:00:00 19,4 5,7 18 10 - - O 1021,6 40
25.05.2018 21:00:00 21,7 7,1 25 14 - - O 1020,6 40
25.05.2018 20:00:00 23,9 7,3 29 16 - - ONO 1019,9 40
25.05.2018 19:00:00 25,9 6,7 18 10 - - O 1019,4 40
25.05.2018 18:00:00 26,1 6,2 18 10 - - OZO 1019,4 40
25.05.2018 17:00:00 26,5 7,0 25 14 - - O 1019,7 40
25.05.2018 16:00:00 25,8 7,0 29 16 - - O 1019,8 40
25.05.2018 15:00:00 25,2 7,1 22 12 - - O 1020,3 40
25.05.2018 14:00:00 25,6 7,1 18 10 - - OZO 1020,7 40
25.05.2018 13:00:00 25,0 7,2 25 14 54 29 OZO 1020,9 40
25.05.2018 12:00:00 23,9 8,9 22 12 50 27 ZO 1021,0 40
25.05.2018 11:00:00 23,3 9,5 25 14 - - O 1021,1 35
25.05.2018 10:00:00 22,3 10,0 18 10 - - OZO 1021,3 30
25.05.2018 09:00:00 19,6 9,8 18 10 - - O 1021,5 30
25.05.2018 08:00:00 17,4 9,6 14 8 - - OZO 1021,2 30
25.05.2018 07:00:00 14,6 9,2 14 8 - - O 1021,4 30
25.05.2018 06:00:00 11,9 8,5 14 8 - - O 1021,5 30
25.05.2018 05:00:00 11,0 7,8 14 8 - - O 1021,5 30
25.05.2018 04:00:00 12,1 8,0 14 8 - - O 1021,6 30
25.05.2018 03:00:00 13,0 8,1 14 8 - - O 1021,6 30
25.05.2018 02:00:00 13,7 8,1 14 8 - - O 1021,6 30
25.05.2018 01:00:00 15,4 8,2 14 8 - - O 1021,6 30
25.05.2018 00:00:00 17,4 8,5 18 10 - - O 1021,5 30
24.05.2018 23:00:00 18,7 8,8 18 10 - - O 1021,2 30
24.05.2018 22:00:00 18,8 7,7 11 6 - - O 1020,7 30
24.05.2018 21:00:00 21,9 7,0 11 6 - - OZO 1020,3 30
24.05.2018 20:00:00 23,9 5,8 25 14 - - OZO 1019,8 30
24.05.2018 19:00:00 24,6 6,6 22 12 - - OZO 1019,9 30
24.05.2018 18:00:00 25,2 7,5 29 16 - - O 1020,1 30
24.05.2018 17:00:00 24,8 7,2 25 14 - - OZO 1020,5 30
24.05.2018 16:00:00 24,4 6,3 29 16 58 31 O 1021,1 30
24.05.2018 15:00:00 24,3 5,7 36 19 50 27 O 1021,7 30
24.05.2018 14:00:00 24,7 7,4 29 16 - - OZO 1022,2 30
24.05.2018 13:00:00 21,6 7,7 29 16 50 27 O 1022,9 30
24.05.2018 12:00:00 21,8 6,7 25 14 47 25 O 1023,1 30
24.05.2018 11:00:00 21,9 4,9 29 16 - - O 1023,3 30
24.05.2018 10:00:00 20,4 7,7 25 14 - - O 1023,5 30
24.05.2018 09:00:00 18,0 8,4 22 12 - - O 1023,9 30
24.05.2018 08:00:00 15,1 7,8 18 10 - - O 1024,0 30
24.05.2018 07:00:00 12,8 6,6 18 10 - - O 1023,9 30
24.05.2018 06:00:00 10,4 5,6 11 6 - - O 1023,8 30
24.05.2018 05:00:00 10,6 5,0 11 6 - - O 1023,9 30
24.05.2018 04:00:00 11,4 5,2 14 8 - - O 1024,2 30
24.05.2018 03:00:00 11,9 5,1 14 8 - - O 1024,2 30
24.05.2018 02:00:00 12,9 5,2 14 8 - - O 1024,2 30
24.05.2018 01:00:00 13,9 5,1 14 8 - - ONO 1024,0 30
24.05.2018 00:00:00 14,6 5,4 14 8 - - ONO 1024,0 30
23.05.2018 23:00:00 15,8 5,9 14 8 - - ONO 1023,9 30
23.05.2018 22:00:00 18,5 5,8 18 10 - - ONO 1023,4 30
23.05.2018 21:00:00 20,8 4,7 18 10 - - O 1022,7 30
23.05.2018 20:00:00 22,7 4,1 22 12 - - O 1022,2 40
23.05.2018 19:00:00 23,3 4,1 29 16 - - ONO 1022,1 40
23.05.2018 18:00:00 23,9 4,0 25 14 - - OZO 1021,9 40
23.05.2018 17:00:00 23,6 3,8 25 14 - - O 1021,9 40
23.05.2018 16:00:00 23,9 4,4 25 14 - - ONO 1022,1 40
23.05.2018 15:00:00 24,0 3,2 22 12 - - ONO 1022,4 40
23.05.2018 14:00:00 23,2 3,7 18 10 - - O 1022,7 40
23.05.2018 13:00:00 21,9 6,3 18 10 - - ONO 1022,7 30
23.05.2018 12:00:00 21,8 6,8 22 12 - - O 1022,3 30
23.05.2018 11:00:00 21,1 6,5 18 10 - - O 1021,9 30
23.05.2018 10:00:00 19,9 7,3 18 10 - - O 1021,7 30
23.05.2018 09:00:00 18,0 7,3 18 10 - - O 1021,4 20
23.05.2018 08:00:00 15,4 6,7 14 8 - - O 1020,8 20
23.05.2018 07:00:00 13,2 6,5 11 6 - - O 1020,2 20
23.05.2018 06:00:00 10,0 5,7 11 6 - - O 1019,7 20
23.05.2018 05:00:00 10,0 5,8 11 6 - - O 1019,3 30
23.05.2018 04:00:00 10,0 6,0 14 8 - - O 1018,9 30
23.05.2018 03:00:00 10,4 6,0 14 8 - - O 1018,7 30
23.05.2018 02:00:00 10,8 5,5 14 8 - - O 1018,4 30
23.05.2018 01:00:00 10,8 5,0 14 8 - - O 1018,0 30
23.05.2018 00:00:00 11,7 4,3 7 4 - - ONO 1017,4 30
22.05.2018 23:00:00 13,0 4,8 7 4 - - O 1016,7 30
22.05.2018 22:00:00 14,9 4,9 7 4 - - O 1016,2 30
22.05.2018 21:00:00 18,7 4,4 7 4 - - O 1015,6 30
22.05.2018 20:00:00 22,0 3,8 14 8 - - O 1014,8 30
22.05.2018 19:00:00 23,3 3,9 14 8 - - O 1014,4 30
22.05.2018 18:00:00 24,5 4,1 14 8 - - O 1014,1 30
22.05.2018 17:00:00 24,2 3,7 7 4 - - ZZO 1014,1 30
22.05.2018 16:00:00 24,3 4,5 14 8 - - O 1014,0 30
22.05.2018 15:00:00 23,8 5,6 22 12 - - O 1014,4 30
22.05.2018 14:00:00 23,5 5,8 14 8 - - ZO 1014,4 30
22.05.2018 13:00:00 23,5 5,6 18 10 - - ZZO 1014,6 30
22.05.2018 12:00:00 22,4 6,1 22 12 - - ZO 1014,6 30
22.05.2018 11:00:00 21,4 6,2 22 12 - - OZO 1014,9 40

tt = temperatuur
td = dauwpunt
ff = windsnelheid
fx = windstoten
dd = windrichting
ppp = luchtdruk
vv = zicht

Weerstations in de omgeving